Weather History for KHNB - April, 2013

Change the Weather History Date:

Sunday, April 7, 2013

  Actual Average Record
Temperature  
Mean Temperature 64 °F -  
Max Temperature 73 °F 62 °F 84 °F (2001)
Min Temperature 55 °F 42 °F 26 °F (2007)
Degree Days  
Heating Degree Days 1    
Growing Degree Days 14 (Base 50)    
Moisture  
Dew Point 46 °F    
Average Humidity 53    
Maximum Humidity 72    
Minimum Humidity 42    
Precipitation  
Precipitation 0.00 in - - ()
Sea Level Pressure  
Sea Level Pressure 29.94 in    
Wind  
Wind Speed 11 mph (SSW)    
Max Wind Speed 18 mph    
Max Gust Speed 23 mph    
Visibility 10 miles    
Events      
Averages and records for this station are not official NWS values.
T = Trace of Precipitation, MM = Missing Value Source: NWS Daily Summary

Daily Weather History Graph

Daily Weather History Graph

Search for Another Location

Airport or City:

Trip Planner

Search our weather history database for the weather conditions in past years. The results will help you decide how hot, cold, wet, or windy it might be!

Date:

Astronomy

Apr. 07, 2013 Rise Set
Actual Time 7:23 AM EDT 8:16 PM EDT
Civil Twilight 6:56 AM EDT 8:43 PM EDT
Nautical Twilight 6:24 AM EDT 9:15 PM EDT
Astronomical Twilight 5:51 AM EDT 9:48 PM EDT
Moon 5:38 AM EDT (4/7) 5:50 PM EDT (4/7)
Length of Visible Light 13h 47m
Length of Day
12h 53m
Waning Crescent, 8% of the Moon is Illuminated
Apr 7
Waning Crescent
Apr 10
New
Apr 18
First Quarter
Apr 25
Full
May 2
Last Quarter

Hourly Weather History & Observations

Time (EDT) Temp. Dew Point Humidity Pressure Visibility Wind Dir Wind Speed Gust Speed Precip Events Conditions
12:15 AM 62.6 °F 39.2 °F 42% 29.91 in 10.0 mi South 11.5 mph - N/A   Clear
12:35 AM 60.8 °F 39.2 °F 45% 29.92 in 10.0 mi South 11.5 mph - N/A   Clear
12:55 AM 60.8 °F 37.4 °F 42% 29.92 in 10.0 mi South 12.7 mph - N/A   Clear
1:15 AM 60.8 °F 37.4 °F 42% 29.91 in 10.0 mi South 15.0 mph 18.4 mph N/A   Clear
1:35 AM 60.8 °F 37.4 °F 42% 29.91 in 10.0 mi South 13.8 mph - N/A   Clear
1:55 AM 60.8 °F 37.4 °F 42% 29.91 in 10.0 mi South 18.4 mph 23.0 mph N/A   Partly Cloudy
2:16 AM 60.8 °F 37.4 °F 42% 29.91 in 10.0 mi South 16.1 mph - N/A   Partly Cloudy
2:35 AM 60.8 °F 37.4 °F 42% 29.91 in 10.0 mi SSW 13.8 mph 23.0 mph N/A   Clear
3:15 AM 60.8 °F 37.4 °F 42% 29.90 in 10.0 mi SSW 15.0 mph - N/A   Partly Cloudy
3:35 AM 60.8 °F 37.4 °F 42% 29.90 in 10.0 mi SSW 12.7 mph 19.6 mph N/A   Partly Cloudy
4:15 AM 59.0 °F 37.4 °F 45% 29.89 in 10.0 mi SSW 13.8 mph - N/A   Clear
4:55 AM 59.0 °F 37.4 °F 45% 29.89 in 10.0 mi SSW 15.0 mph - N/A   Clear
5:15 AM 59.0 °F 37.4 °F 45% 29.90 in 10.0 mi SSW 12.7 mph - N/A   Clear
5:35 AM 57.2 °F 39.2 °F 51% 29.90 in 10.0 mi South 11.5 mph - N/A   Clear
5:55 AM 57.2 °F 39.2 °F 51% 29.90 in 10.0 mi SSW 12.7 mph - N/A   Scattered Clouds
6:15 AM 57.2 °F 39.2 °F 51% 29.90 in 10.0 mi SSW 11.5 mph - N/A   Mostly Cloudy
6:35 AM 59.0 °F 39.2 °F 48% 29.91 in 10.0 mi SSW 11.5 mph - N/A   Mostly Cloudy
6:55 AM 57.2 °F 39.2 °F 51% 29.92 in 10.0 mi SSW 12.7 mph - N/A   Mostly Cloudy
7:15 AM 57.2 °F 39.2 °F 51% 29.92 in 10.0 mi SSW 12.7 mph - N/A   Mostly Cloudy
7:35 AM 57.2 °F 39.2 °F 51% 29.93 in 10.0 mi SSW 10.4 mph - N/A   Partly Cloudy
7:55 AM 55.4 °F 41.0 °F 58% 29.94 in 10.0 mi SSW 9.2 mph - N/A   Clear
8:15 AM 57.2 °F 41.0 °F 55% 29.95 in 10.0 mi SSW 10.4 mph - N/A   Clear
8:35 AM 57.2 °F 42.8 °F 59% 29.95 in 10.0 mi South 9.2 mph - N/A   Clear
8:55 AM 59.0 °F 42.8 °F 55% 29.96 in 10.0 mi SSW 8.1 mph - N/A   Clear
9:15 AM 60.8 °F 42.8 °F 52% 29.97 in 10.0 mi SSW 9.2 mph - N/A   Partly Cloudy
9:35 AM 62.6 °F 44.6 °F 52% 29.97 in 10.0 mi SW 13.8 mph - N/A   Partly Cloudy
10:15 AM 64.4 °F 46.4 °F 52% 29.97 in 10.0 mi SW 11.5 mph - N/A   Clear
10:35 AM 64.4 °F 46.4 °F 52% 29.97 in 10.0 mi SSW 16.1 mph - N/A   Clear
10:55 AM 66.2 °F 46.4 °F 49% 29.97 in 10.0 mi SSW 15.0 mph - N/A   Clear
11:15 AM 66.2 °F 48.2 °F 52% 29.97 in 10.0 mi SW 12.7 mph - N/A   Clear
11:35 AM 66.2 °F 48.2 °F 52% 29.98 in 10.0 mi WSW 10.4 mph 16.1 mph N/A   Clear
11:55 AM 68.0 °F 48.2 °F 49% 29.98 in 10.0 mi SW 10.4 mph 17.3 mph N/A   Clear
12:15 PM 68.0 °F 48.2 °F 49% 29.99 in 10.0 mi WSW 9.2 mph - N/A   Clear
1:15 PM 71.6 °F 51.8 °F 50% 29.97 in 10.0 mi SSW 10.4 mph - N/A   Clear
1:35 PM 71.6 °F 51.8 °F 50% 29.97 in 10.0 mi SSW 10.4 mph - N/A   Clear
1:55 PM 71.6 °F 51.8 °F 50% 29.97 in 10.0 mi South 12.7 mph - N/A   Clear
2:15 PM 71.6 °F 51.8 °F 50% 29.97 in 10.0 mi SSW 10.4 mph 19.6 mph N/A   Clear
2:35 PM 71.6 °F 51.8 °F 50% 29.96 in 10.0 mi SSW 12.7 mph - N/A   Partly Cloudy
2:55 PM 71.6 °F 51.8 °F 50% 29.96 in 10.0 mi South 6.9 mph - N/A   Partly Cloudy
3:15 PM 71.6 °F 51.8 °F 50% 29.96 in 10.0 mi South 9.2 mph - N/A   Mostly Cloudy
3:35 PM 73.4 °F 53.6 °F 50% 29.96 in 10.0 mi SSW 11.5 mph 18.4 mph N/A   Scattered Clouds
3:55 PM 71.6 °F 51.8 °F 50% 29.95 in 10.0 mi South 8.1 mph - N/A   Scattered Clouds
4:15 PM 71.6 °F 51.8 °F 50% 29.95 in 10.0 mi SSW 10.4 mph - N/A   Mostly Cloudy
4:35 PM 71.6 °F 53.6 °F 53% 29.95 in 10.0 mi SSW 10.4 mph - N/A   Mostly Cloudy
4:55 PM 71.6 °F 53.6 °F 53% 29.95 in 10.0 mi SSW 11.5 mph - N/A   Scattered Clouds
5:15 PM 71.6 °F 51.8 °F 50% 29.94 in 10.0 mi South 10.4 mph - N/A   Partly Cloudy
5:35 PM 71.6 °F 53.6 °F 53% 29.94 in 10.0 mi SSW 11.5 mph - N/A   Partly Cloudy
5:55 PM 69.8 °F 53.6 °F 56% 29.94 in 10.0 mi South 10.4 mph - N/A   Partly Cloudy
6:15 PM 71.6 °F 53.6 °F 53% 29.94 in 10.0 mi SSW 10.4 mph - N/A   Partly Cloudy
6:35 PM 71.6 °F 53.6 °F 53% 29.94 in 10.0 mi South 11.5 mph - N/A   Scattered Clouds
6:55 PM 69.8 °F 53.6 °F 56% 29.93 in 10.0 mi South 10.4 mph - N/A   Scattered Clouds
7:15 PM 69.8 °F 53.6 °F 56% 29.93 in 10.0 mi South 11.5 mph - N/A   Partly Cloudy
7:35 PM 68.0 °F 53.6 °F 60% 29.93 in 10.0 mi South 9.2 mph - N/A   Partly Cloudy
7:55 PM 66.2 °F 51.8 °F 60% 29.93 in 10.0 mi South 8.1 mph - N/A   Partly Cloudy
8:15 PM 64.4 °F 51.8 °F 64% 29.93 in 10.0 mi South 8.1 mph - N/A   Clear
8:35 PM 64.4 °F 51.8 °F 64% 29.93 in 10.0 mi South 6.9 mph - N/A   Clear
8:55 PM 64.4 °F 51.8 °F 64% 29.94 in 10.0 mi South 5.8 mph - N/A   Clear
9:15 PM 64.4 °F 51.8 °F 64% 29.94 in 10.0 mi South 5.8 mph - N/A   Clear
9:35 PM 64.4 °F 50.0 °F 59% 29.95 in 10.0 mi SSE 3.5 mph - N/A   Clear
9:55 PM 64.4 °F 50.0 °F 59% 29.95 in 10.0 mi SSE 4.6 mph - N/A   Clear
10:15 PM 62.6 °F 50.0 °F 63% 29.96 in 10.0 mi South 3.5 mph - N/A   Clear
10:35 PM 62.6 °F 50.0 °F 63% 29.97 in 10.0 mi South 3.5 mph - N/A   Clear
10:55 PM 62.6 °F 50.0 °F 63% 29.97 in 10.0 mi SW 3.5 mph - N/A   Clear
11:15 PM 60.8 °F 50.0 °F 68% 29.97 in 10.0 mi North 9.2 mph - N/A   Mostly Cloudy
11:35 PM 60.8 °F 51.8 °F 72% 29.97 in 10.0 mi NNE 4.6 mph - N/A   Mostly Cloudy
11:55 PM 60.8 °F 51.8 °F 72% 29.97 in 10.0 mi North 4.6 mph - N/A   Scattered Clouds